sat.trackr.live / text

‹ back to catalog

STARLINK-32851

NORAD 62810 · 2025-018E

PAYLOAD ACTIVE UNKNOWN

§ Identity

Operator
Country
US
Launch date
2025-01-24
Launch site
AFWTR
Launch vehicle
Mass (kg)
RCS (m²)

Purposes: comms

External: N2YO · Heavens-Above · Gunter

§ Orbital elements

Epoch: 2026-05-25T04:50:45.432672Z

Period
94.10 min
Inclination
53.1602°
Eccentricity
0.0001673
Mean motion
15.30210585 rev/d
Perigee alt
474.0 km
Apogee alt
476.3 km
Semi-major
6,853.3 km
B*
4.7314e-4
RAAN
314.1426°
Arg perigee
94.6030°
Mean anomaly
265.5162°
Rev number
7,488

§ Raw data

STARLINK-328511 62810U 25018E   26145.20191473  .00013684  00000+0  47314-3 0  99912 62810  53.1602 314.1426 0001673  94.6030 265.5162 15.30210585 74880

JSON: /api/v1/satellites/62810 · /tle

For live sub-satellite position, see the globe view (requires WebGL).

§ Visibility from observer

Set your observer location to see the next 7 days of passes ≥ 10°. The values pass through the URL so the page stays shareable.

No JS? Fill the form by hand. The geolocation button needs JavaScript.